Temperature
9 9 9 8 8 8 8 8 8 8 8 7 7 7 7 7 7 7 7 8 8 8 8 8 8 8 8 8 8 8 8 8 8 8 8 8 8 8 8 9 9 9 9
9 9 9 9 8 8 8 8 8 8 8 7 7 7 7 7 7 7 7 8 8 8 8 8 8 8 8 7 7 7 7 7 8 8 8 8 8 8 8 8 8 8 9
9 9 9 9 9 8 8 8 8 8 8 8 7 7 7 7 7 7 7 8 8 8 8 8 8 8 7 7 7 7 7 7 7 7 7 7 7 7 7 8 8 8 8
9 9 9 9 9 8 8 8 8 8 8 7 7 7 7 8 8 8 7 7 7 7 7 8 8 7 7 7 7 6 6 6 6 6 6 6 7 7 7 7 7 7 7
9 9 9 9 9 8 8 8 8 8 7 7 7 8 8 8 8 8 7 7 7 7 7 7 7 7 7 7 7 7 7 6 6 6 6 6 6 6 6 6 6 7 7
9 9 9 9 9 8 8 8 8 8 7 7 7 8 8 8 8 7 7 7 7 7 7 6 6 6 6 7 7 7 6 6 6 5 5 5 5 5 6 6 6 6 6
9 9 9 9 9 8 8 8 8 7 7 7 7 7 7 7 7 7 7 6 6 6 6 6 6 6 6 6 6 6 6 6 6 5 5 5 5 5 5 5 5 5 5
9 9 9 9 9 8 8 8 8 7 7 7 6 6 6 7 6 6 6 6 6 5 5 5 5 5 6 6 6 6 6 6 6 5 5 4 4 4 4 4 4 4 5
9 9 9 9 9 8 8 8 7 7 6 6 6 5 5 6 5 5 5 5 5 5 5 5 5 5 5 5 5 6 6 6 6 5 4 4 4 4 4 4 4 4 4
9 9 9 9 8 8 8 7 7 7 6 6 5 5 5 4 3 4 4 4 4 4 4 4 5 5 5 5 5 5 5 5 5 5 4 4 3 3 3 3 3 3 4
9 9 9 9 8 8 8 7 7 6 6 5 5 5 4 4 3 2 3 3 3 3 3 4 4 4 4 4 4 4 4 4 4 4 4 3 3 3 2 2 2 3 3
9 9 9 8 8 8 7 7 6 6 6 5 5 4 4 3 2 2 2 2 2 3 3 3 3 3 3 3 3 3 3 3 3 3 3 3 3 2 2 2 2 2 2
9 9 9 8 8 7 7 7 6 6 5 5 5 4 4 3 3 2 1 1 1 1 2 2 2 2 2 2 2 2 2 2 2 2 2 2 2 1 1 1 1 1 1
9 9 8 8 7 7 7 6 6 6 5 5 4 4 4 3 3 2 1 0 -0 0 1 1 1 1 1 1 1 1 1 1 1 0 0 0 0 0 -0 -0 -0 -0 -0
9 8 8 8 7 7 6 6 6 5 5 4 4 4 3 3 2 2 1 0 -1 -1 -0 0 -0 -0 -0 -0 0 1 0 -0 -0 -0 -1 -1 -1 -1 -1 -1 -1 -1 -1
9 8 8 7 7 6 6 6 5 5 4 4 4 3 3 2 2 2 1 0 -1 -2 -2 -1 -1 -1 -1 -1 -1 -1 -1 -1 -1 -1 -1 -1 -2 -2 -2 -2 -2 -2 -2
8 8 7 7 6 6 6 5 5 4 4 3 3 3 2 2 1 1 0 -0 -1 -2 -2 -2 -2 -2 -2 -2 -2 -2 -2 -2 -3 -3 -2 -3 -3 -3 -3 -3 -3 -3 -2
8 7 7 6 6 6 5 5 4 4 3 3 3 2 2 1 1 0 -0 -1 -1 -2 -3 -3 -3 -3 -3 -3 -3 -3 -3 -4 -4 -3 -3 -3 -3 -3 -3 -3 -3 -3 -3
7 7 6 6 6 5 5 4 4 3 3 2 2 2 1 1 0 -0 -1 -1 -2 -2 -3 -4 -4 -4 -4 -4 -4 -4 -4 -4 -4 -4 -4 -4 -4 -4 -4 -4 -4 -4 -4
7 6 6 5 5 5 4 3 3 3 2 2 2 1 1 0 -0 -1 -1 -2 -2 -3 -4 -4 -4 -5 -5 -5 -5 -5 -5 -5 -5 -5 -5 -4 -4 -4 -4 -4 -4 -4 -4
6 6 5 5 4 4 4 3 3 2 2 1 1 1 0 0 -0 -1 -2 -2 -3 -4 -4 -4 -5 -5 -5 -5 -5 -5 -5 -5 -5 -5 -5 -5 -5 -5 -5 -5 -4 -4 -4
6 5 5 4 4 4 3 3 2 1 1 1 0 0 -0 -0 -1 -1 -2 -3 -3 -4 -4 -5 -5 -5 -5 -5 -5 -5 -6 -6 -5 -5 -5 -5 -5 -5 -5 -5 -5 -5 -4
5 5 4 4 3 3 3 2 2 1 0 0 -0 -1 -1 -1 -2 -2 -2 -3 -4 -4 -5 -5 -5 -5 -5 -5 -6 -6 -6 -6 -6 -6 -6 -6 -5 -5 -5 -5 -5 -5 -5
5 4 4 3 3 3 2 2 1 1 0 -0 -1 -1 -2 -2 -2 -3 -3 -4 -4 -5 -5 -5 -5 -5 -6 -6 -6 -6 -6 -6 -6 -6 -6 -6 -6 -5 -5 -5 -5 -5 -5
4 4 3 3 2 2 2 1 1 0 -0 -1 -1 -2 -2 -2 -3 -4 -4 -5 -5 -5 -5 -5 -5 -5 -5 -5 -6 -6 -6 -6 -6 -6 -6 -6 -6 -6 -6 -6 -5 -5 -5
3 3 3 2 2 2 1 1 0 -0 -1 -2 -2 -2 -3 -3 -3 -4 -5 -5 -5 -5 -5 -5 -6 -6 -6 -6 -6 -6 -7 -7 -7 -7 -6 -6 -6 -6 -6 -6 -6 -6 -5
Wind_Speed
7 6 6 5 6 5 5 5 5 5 6 6 6 7 7 8 8 8 7 6 8 10 12 12 13 13 13 13 13 13 13 13 13 13 13 13 14 14 14 15 15 16 17
8 7 6 6 6 6 5 6 6 6 6 6 7 8 8 9 9 9 9 8 7 8 9 10 10 11 11 11 12 12 12 12 13 13 13 14 14 14 15 15 16 16 17
9 8 6 6 6 6 6 6 6 5 5 6 7 8 8 9 10 10 9 9 7 4 5 6 7 8 9 10 11 11 12 13 13 14 14 14 15 15 16 16 16 17 18
10 8 6 6 6 5 5 4 4 5 5 6 6 6 7 8 10 9 9 7 6 5 2 2 4 6 8 10 11 12 13 13 14 14 15 15 16 16 17 17 17 18 18
10 8 6 6 6 5 4 3 4 4 5 5 6 7 7 7 7 7 6 5 3 3 3 1 2 5 8 10 12 13 14 15 15 16 16 16 17 18 18 18 18 19 19
9 8 6 5 5 4 3 3 4 3 4 5 6 7 7 6 5 4 3 3 2 2 3 4 5 5 7 10 12 13 15 15 16 17 17 18 18 19 19 20 20 21 21
9 7 5 5 4 4 3 4 3 4 3 3 5 5 5 4 4 2 3 3 3 3 4 5 7 9 9 11 11 12 15 16 17 18 18 19 19 20 20 21 21 22 22
8 7 6 4 4 3 3 3 3 2 2 2 3 5 4 3 1 3 4 4 5 5 6 7 10 10 11 11 10 13 14 16 17 19 19 20 20 21 21 22 22 23 23
8 7 7 5 4 4 3 3 3 3 3 2 2 3 3 4 5 4 4 5 6 6 7 9 11 12 12 12 12 11 14 17 18 19 20 21 21 22 22 23 23 24 24
8 8 7 6 5 4 4 3 3 2 3 3 2 3 4 4 4 5 5 5 7 9 10 9 11 12 12 11 11 14 15 17 19 20 21 22 23 23 24 24 24 25 25
8 8 8 6 5 4 4 3 3 3 3 3 3 3 4 5 7 6 8 9 8 8 8 10 10 11 11 11 11 12 16 18 20 21 22 23 23 24 25 25 25 26 26
6 8 7 6 6 4 4 3 3 3 3 4 4 4 4 5 5 6 8 11 11 9 10 9 9 9 10 11 12 14 17 20 21 22 22 23 24 25 25 26 26 26 27
7 8 7 6 5 5 4 4 4 4 4 5 5 5 5 6 6 7 9 10 12 11 9 7 7 9 10 12 12 14 18 21 21 22 23 24 24 25 25 26 26 27 27
8 9 8 7 6 6 5 4 4 4 4 5 6 6 6 6 6 7 7 9 10 10 9 11 9 9 10 12 14 18 19 20 20 22 23 25 25 25 25 26 26 27 27
7 9 8 7 6 6 5 5 4 5 5 5 6 7 6 6 6 7 7 8 8 9 12 11 8 8 11 14 17 19 19 21 23 24 25 25 24 25 25 26 26 27 27
9 9 8 7 6 6 5 5 5 5 6 6 5 7 8 7 7 7 8 8 9 11 12 10 12 14 15 15 19 20 20 23 24 24 24 24 24 25 26 26 27 27 27
10 9 8 7 7 6 6 6 6 6 7 7 7 8 9 9 8 8 8 9 10 11 15 15 13 14 16 17 16 18 19 20 19 22 24 25 25 26 26 26 26 26 26
9 9 8 7 7 7 7 7 7 7 8 9 9 9 10 9 11 10 9 11 11 12 14 18 15 14 16 16 17 17 17 18 19 22 24 26 26 27 26 26 26 26 25
9 8 8 8 7 7 7 8 8 8 9 10 10 11 11 11 12 11 12 12 11 12 13 14 16 14 14 14 16 16 17 15 17 19 22 23 25 26 26 27 26 26 25
9 9 8 7 7 7 7 8 8 9 10 10 11 12 12 12 13 13 12 13 13 13 13 14 15 14 14 15 14 14 15 14 14 15 19 21 23 25 25 25 24 24 24
9 8 8 7 7 7 7 7 7 9 10 12 12 13 13 14 16 15 13 13 13 12 13 13 14 14 14 13 13 13 15 15 15 14 15 14 14 14 15 19 21 21 22
8 8 8 8 8 7 9 11 11 11 11 13 13 14 14 15 17 19 21 21 19 17 15 15 14 15 17 16 15 14 15 16 16 12 13 14 13 15 14 15 19 22 23
9 8 8 8 9 9 11 13 14 12 13 14 14 14 12 13 16 14 17 19 20 22 22 19 18 19 19 17 17 18 16 17 17 14 14 15 14 15 14 16 22 22 23
8 8 8 9 9 10 11 13 14 13 14 15 15 15 15 16 14 14 14 15 17 17 18 16 15 18 18 18 17 17 18 17 17 14 13 14 14 14 13 13 19 20 20
8 8 8 9 10 11 11 13 13 11 12 15 14 15 15 16 18 19 17 17 18 17 18 22 24 24 26 26 21 14 13 14 15 13 11 11 13 13 13 13 12 14 14
7 7 8 9 11 11 11 13 14 10 12 13 13 13 16 18 19 20 17 16 17 17 16 16 17 18 18 18 20 15 12 13 13 12 10 9 11 10 8 8 8 8 9
Wind_Direction
200 207 217 222 231 237 238 247 258 267 271 280 284 288 292 293 293 295 295 289 295 302 305 307 308 309 309 308 307 306 306 305 304 301 297 294 291 289 288 286 283 278 274
204 211 219 224 233 236 243 255 263 271 278 281 284 287 288 291 291 293 294 292 280 293 305 308 311 313 314 315 315 315 315 314 313 312 309 304 298 293 290 288 287 285 282
208 212 219 224 230 233 241 254 262 270 276 278 282 287 288 289 291 291 292 293 294 286 305 316 321 325 328 327 326 326 324 320 316 313 310 306 303 298 293 290 288 287 285
208 211 218 225 227 228 233 245 258 264 270 278 287 291 288 289 289 292 290 288 291 297 296 353 343 342 339 333 329 325 322 318 314 311 307 305 303 300 296 292 289 288 286
206 211 218 224 219 217 227 237 253 270 282 288 291 291 290 290 292 290 286 287 284 289 301 353 324 333 335 329 324 319 315 311 308 305 303 302 300 298 295 293 290 288 286
200 207 209 212 206 212 223 234 252 267 286 299 297 292 290 292 287 283 278 264 254 276 293 307 309 312 315 319 317 314 311 308 305 303 301 299 296 294 292 290 289 287 285
191 194 194 196 202 215 224 234 248 258 274 309 300 299 288 271 281 272 274 271 267 279 290 300 311 314 311 309 306 311 311 308 305 302 299 297 295 293 290 289 287 285 283
179 181 188 186 190 199 210 217 228 257 268 297 306 310 310 280 228 273 283 281 286 285 286 297 307 309 308 307 306 306 308 308 306 303 300 298 295 293 291 288 286 284 283
172 174 182 181 181 191 199 202 213 240 264 261 288 299 306 306 318 279 277 284 287 288 294 300 302 304 303 301 301 304 309 310 307 303 301 299 296 294 291 289 287 285 283
165 168 170 169 170 178 183 190 212 236 255 263 258 259 274 289 289 300 284 278 286 292 294 298 300 301 300 300 299 300 306 308 307 305 303 301 298 295 293 291 290 288 285
161 163 164 164 167 172 178 183 199 220 244 262 266 267 267 267 261 271 290 297 295 287 290 294 294 294 296 297 298 303 308 307 304 303 302 301 299 297 294 292 291 289 288
162 165 166 168 169 169 176 186 202 218 238 250 257 257 262 266 271 269 280 294 299 300 298 290 286 287 292 296 296 301 304 303 302 301 301 300 298 296 294 292 291 289 287
171 172 171 173 173 174 179 189 206 224 235 246 253 259 261 263 272 273 278 288 294 298 295 286 279 284 290 292 295 303 300 298 297 298 299 298 296 294 293 291 290 288 286
172 170 174 176 175 178 184 197 216 228 239 246 255 258 261 263 263 263 270 286 294 294 288 288 293 287 289 293 299 302 295 294 294 296 296 295 294 292 291 290 289 288 286
163 169 173 176 179 185 196 208 228 234 243 250 255 258 260 263 261 262 263 265 274 290 295 297 296 291 293 294 298 298 297 296 296 295 294 292 292 291 290 289 288 287 285
166 170 176 181 186 195 205 218 234 241 248 253 255 259 262 264 264 261 259 261 260 268 280 287 291 292 295 293 294 295 294 295 292 291 291 291 291 290 289 288 287 286 285
172 177 181 188 196 206 214 225 236 243 251 258 256 259 263 266 267 266 264 263 264 266 274 284 288 292 293 293 294 293 294 294 292 291 290 291 291 290 289 288 287 286 286
177 181 185 196 206 215 225 235 243 247 253 259 262 263 265 267 265 267 266 266 268 269 275 285 290 293 293 295 293 292 293 291 290 291 291 291 291 290 289 288 287 286 286
180 185 193 204 213 222 231 240 248 253 256 259 263 264 267 268 269 270 270 271 273 275 276 282 288 292 292 291 292 291 291 290 290 291 291 290 290 289 289 288 287 285 286
186 193 202 211 220 228 235 242 248 254 259 261 262 262 264 265 268 273 275 275 276 278 278 279 284 287 288 290 290 291 292 291 292 293 291 290 288 288 287 286 286 286 287
193 199 207 218 226 230 235 235 241 251 257 263 264 263 262 262 266 269 271 273 274 274 276 278 282 286 288 290 289 291 291 294 291 291 290 290 291 290 292 290 287 285 286
196 203 215 226 234 237 239 245 253 260 261 264 267 268 268 266 265 267 269 271 273 275 277 278 281 282 285 288 290 289 291 292 292 291 290 290 291 289 288 285 284 285 284
202 213 224 233 243 246 244 254 258 267 269 269 270 272 272 270 271 272 274 275 275 273 272 274 277 279 284 287 289 288 285 284 285 289 291 286 286 286 287 284 285 283 283
209 221 231 239 249 253 252 260 266 268 270 270 270 271 273 275 274 275 277 276 275 274 273 272 272 276 279 282 281 281 282 284 283 279 275 281 286 287 289 288 288 286 286
218 228 237 245 252 259 254 262 270 273 271 271 271 270 271 274 276 278 279 278 279 278 276 274 274 277 279 282 284 286 286 286 286 286 283 280 287 293 293 290 289 291 291
226 235 244 250 256 264 263 264 268 270 272 274 274 272 269 271 277 280 280 281 281 283 285 285 283 281 281 283 285 280 280 281 285 289 287 284 288 297 294 289 295 300 298
Height
1557 1558 1558 1558 1558 1558 1557 1557 1556 1556 1554 1553 1552 1551 1550 1549 1547 1545 1543 1541 1540 1538 1537 1536 1535 1534 1533 1533 1532 1531 1530 1530 1529 1528 1528 1527 1526 1526 1525 1524 1524 1524 1523
1555 1556 1556 1556 1556 1556 1556 1555 1555 1554 1553 1551 1550 1549 1547 1546 1544 1543 1541 1538 1536 1535 1534 1533 1532 1531 1530 1529 1528 1527 1527 1526 1525 1524 1523 1523 1522 1521 1521 1520 1520 1519 1519
1553 1554 1554 1554 1554 1554 1553 1553 1552 1551 1550 1549 1548 1546 1545 1543 1541 1540 1538 1536 1534 1532 1530 1529 1528 1527 1526 1525 1525 1524 1523 1522 1521 1520 1519 1518 1518 1517 1516 1516 1515 1515 1514
1551 1551 1552 1552 1552 1552 1551 1550 1550 1549 1548 1546 1545 1544 1542 1540 1538 1536 1534 1532 1531 1529 1528 1526 1525 1524 1523 1522 1521 1519 1518 1517 1516 1515 1514 1513 1513 1512 1511 1511 1510 1509 1509
1548 1549 1549 1549 1549 1549 1548 1548 1547 1546 1545 1544 1542 1540 1539 1537 1535 1533 1531 1530 1528 1527 1526 1524 1522 1521 1520 1518 1517 1515 1514 1513 1512 1511 1510 1508 1507 1506 1506 1505 1504 1504 1503
1545 1546 1546 1547 1547 1546 1546 1545 1544 1543 1542 1541 1539 1537 1535 1533 1531 1530 1529 1527 1526 1525 1523 1522 1520 1518 1516 1515 1513 1511 1510 1508 1507 1506 1504 1503 1502 1501 1500 1499 1499 1498 1497
1542 1543 1543 1544 1544 1543 1543 1542 1542 1541 1539 1538 1537 1534 1532 1530 1528 1527 1527 1526 1525 1523 1521 1519 1518 1515 1513 1510 1508 1507 1505 1503 1502 1500 1499 1498 1496 1495 1494 1493 1492 1492 1491
1539 1540 1540 1541 1541 1540 1540 1539 1539 1538 1537 1536 1535 1533 1532 1531 1527 1526 1524 1523 1522 1521 1519 1516 1514 1511 1509 1506 1504 1502 1499 1498 1496 1494 1493 1492 1490 1489 1488 1487 1486 1485 1484
1536 1537 1537 1537 1537 1537 1537 1536 1536 1536 1535 1534 1533 1533 1531 1529 1527 1524 1521 1520 1519 1517 1515 1512 1510 1507 1504 1501 1499 1496 1494 1492 1490 1488 1487 1485 1484 1483 1482 1480 1479 1478 1477
1532 1534 1534 1535 1535 1534 1534 1534 1533 1533 1532 1531 1530 1529 1529 1527 1525 1521 1519 1517 1514 1512 1510 1507 1505 1502 1499 1496 1493 1491 1488 1486 1483 1481 1479 1478 1477 1475 1474 1473 1472 1471 1470
1529 1530 1531 1532 1532 1531 1531 1531 1531 1530 1529 1528 1527 1526 1525 1523 1522 1520 1515 1513 1510 1508 1505 1502 1499 1497 1494 1491 1488 1485 1482 1479 1477 1474 1472 1470 1468 1467 1466 1464 1463 1462 1461
1526 1527 1528 1529 1529 1529 1528 1528 1528 1527 1526 1525 1524 1522 1521 1520 1518 1516 1512 1508 1505 1503 1499 1496 1493 1491 1488 1485 1482 1479 1476 1473 1470 1467 1464 1462 1460 1458 1456 1455 1454 1452 1452
1523 1524 1525 1526 1526 1526 1525 1525 1524 1524 1523 1521 1520 1519 1517 1516 1514 1512 1509 1504 1501 1497 1494 1490 1488 1485 1482 1479 1476 1472 1468 1465 1462 1460 1457 1454 1451 1449 1447 1446 1444 1443 1442
1520 1521 1522 1522 1522 1522 1522 1522 1521 1520 1519 1517 1516 1514 1513 1511 1509 1507 1504 1501 1496 1492 1490 1487 1484 1480 1477 1473 1469 1465 1461 1458 1454 1451 1448 1446 1443 1441 1439 1437 1435 1434 1433
1517 1518 1519 1519 1519 1519 1519 1518 1517 1516 1515 1513 1512 1510 1508 1506 1504 1502 1500 1497 1495 1488 1483 1481 1478 1474 1471 1467 1463 1459 1455 1451 1447 1444 1441 1438 1435 1433 1431 1429 1427 1425 1424
1513 1514 1515 1515 1515 1515 1515 1514 1513 1512 1511 1509 1507 1506 1504 1502 1499 1497 1494 1492 1489 1485 1478 1474 1472 1469 1465 1461 1457 1452 1448 1444 1440 1436 1433 1430 1427 1425 1423 1421 1419 1417 1415
1509 1510 1511 1511 1511 1511 1511 1510 1509 1507 1506 1505 1503 1501 1499 1497 1494 1491 1489 1486 1483 1479 1473 1467 1466 1463 1459 1455 1450 1446 1441 1437 1433 1429 1426 1423 1420 1417 1415 1413 1411 1409 1407
1505 1506 1507 1507 1507 1507 1506 1505 1504 1503 1501 1499 1498 1495 1493 1491 1488 1486 1483 1480 1477 1473 1468 1461 1458 1455 1452 1448 1443 1439 1435 1431 1427 1423 1419 1415 1412 1409 1407 1405 1402 1400 1399
1501 1502 1503 1503 1503 1502 1501 1500 1499 1497 1496 1494 1492 1490 1487 1485 1482 1480 1476 1473 1470 1466 1462 1456 1451 1448 1444 1441 1437 1432 1428 1424 1420 1416 1412 1409 1405 1402 1399 1396 1394 1392 1390
1497 1498 1498 1498 1498 1497 1496 1495 1493 1492 1490 1488 1486 1483 1481 1478 1475 1473 1469 1466 1463 1459 1455 1451 1445 1441 1438 1435 1431 1426 1421 1418 1414 1410 1406 1402 1398 1394 1391 1388 1386 1384 1382
1493 1493 1494 1493 1493 1492 1491 1489 1488 1485 1483 1481 1478 1476 1473 1471 1468 1465 1462 1458 1456 1452 1448 1444 1439 1435 1431 1428 1425 1421 1416 1411 1407 1404 1399 1396 1392 1388 1385 1381 1379 1376 1374
1488 1488 1488 1488 1487 1486 1485 1483 1481 1479 1476 1474 1471 1468 1466 1463 1460 1457 1454 1451 1448 1445 1441 1437 1433 1429 1425 1422 1418 1415 1410 1405 1399 1398 1394 1389 1387 1382 1378 1375 1372 1369 1367
1483 1483 1483 1482 1481 1480 1479 1477 1475 1472 1469 1467 1464 1461 1457 1454 1451 1448 1445 1442 1439 1436 1434 1431 1425 1421 1418 1415 1412 1407 1403 1399 1394 1390 1388 1381 1379 1375 1371 1368 1365 1363 1360
1478 1478 1477 1477 1475 1474 1472 1470 1468 1465 1461 1459 1456 1453 1449 1446 1443 1440 1436 1432 1429 1427 1425 1422 1418 1413 1410 1407 1404 1400 1396 1391 1386 1383 1381 1375 1372 1369 1365 1362 1359 1356 1354
1472 1472 1471 1470 1468 1467 1465 1463 1460 1456 1453 1450 1447 1444 1441 1438 1435 1432 1428 1424 1420 1417 1416 1413 1409 1406 1402 1399 1397 1393 1388 1384 1379 1376 1375 1371 1366 1363 1359 1356 1353 1351 1348
1466 1466 1465 1463 1462 1460 1458 1455 1452 1448 1444 1441 1438 1435 1432 1429 1426 1424 1421 1417 1412 1409 1407 1403 1400 1397 1393 1390 1388 1385 1381 1377 1373 1369 1368 1366 1361 1358 1353 1351 1349 1347 1344